Flag for U.S.A. Weather past 2 weeks in Mountain View, California, U.S.A.

Now
65 °F

Overcast.


Feels Like: 65 °F
Forecast: 63 / 75 °F
Wind: No wind

Location: Moffett Field

Current Time: Sep 21, 2014 at 1:53:19 AM

Latest Report: Sep 21, 2014 at 12:56 AM


Visibility: 10 mi

Pressure: 29.94 "Hg

Humidity: 78%

Dew point: 58 °F

Location of Mountain ViewLocation

Historic Weather in Mountain View — Graph

°F

Mountain View temperature yesterday

Maximum temperature yesterday: 75 °F (at 12:56 PM)
Minimum temperature yesterday: 63 °F (at 11:56 PM)
Average temperature yesterday: 69 °F

Past Weeks' High & Low Weather Summary

 TemperatureHumidityPressure
High86 °F (Sep 10, 2:56 PM)90% (Sep 10, 5:56 AM)30.02 "Hg (Sep 10, 5:56 AM)
Low56 °F (Sep 9, 1:56 AM)29% (Sep 10, 2:56 PM)29.74 "Hg (Sep 17, 5:56 PM)
Average68 °F70%29.89 "Hg
* Reported Sep 6 12:56 AM — Sep 21 12:56 AM, Mountain View, Weather by CustomWeather, © 2014

Note: Actual official high and low records may vary slightly from our data, if they occured in-between our weather recording intervals... More about our weather records

Advertising

Mountain View weather history for previous 24 hours

 ConditionsComfort  
Time TempWeatherWind HumidityBarometerVisibility
12:56 AM
Sep 21
65 °FOvercast.No wind78%29.94 "Hg10 mi
11:56 PM
Sep 20
63 °FClear.No wind81%29.96 "Hg10 mi
10:56 PM65 °FPassing clouds.14 mph81%29.96 "Hg10 mi
9:56 PM65 °FClear.6 mph81%29.95 "Hg10 mi
8:56 PM65 °FClear.7 mph81%29.95 "Hg10 mi
7:56 PM67 °FSunny.10 mph76%29.94 "Hg10 mi
6:56 PM68 °FSunny.12 mph73%29.91 "Hg10 mi
5:56 PM70 °FSunny.12 mph71%29.90 "Hg10 mi
4:56 PM71 °FSunny.16 mph71%29.90 "Hg10 mi
3:56 PM74 °FSunny.14 mph64%29.90 "Hg10 mi
2:56 PM73 °FSunny.16 mph66%29.90 "Hg10 mi
1:56 PM75 °FSunny.12 mph62%29.92 "Hg10 mi
12:56 PM75 °FSunny.9 mph62%29.94 "Hg10 mi
11:56 AM74 °FSunny.5 mph64%29.95 "Hg10 mi
10:56 AM71 °FPartly sunny.No wind68%29.96 "Hg10 mi
5:56 AM66 °FOvercast.3 mph84%29.90 "Hg10 mi
4:56 AM66 °FOvercast.3 mph84%29.89 "Hg10 mi
3:56 AM67 °FOvercast.No wind81%29.89 "Hg10 mi
2:56 AM66 °FOvercast.No wind87%29.90 "Hg10 mi
1:56 AM66 °FOvercast.No wind87%29.90 "Hg10 mi
Weather by CustomWeather, © 2014

See weather overviewHow to use our weather pages